Weather Roundup
Issued by NWS

Home | Current Version | Previous Version | Text Only | Print | Product List | Glossary On
Versions: 1 2 3 4 5 6 7 8 9 10 11 12 13 14 15 16 17 18 19 20 21 22 23 24 25 26 27 28 29 30 31 32 33 34 35 36 37 38 39 40 41 42 43 44 45 46 47 48 49 50
000
NZUS93 KARX 220159
HRRWXR

CURRENT HOURLY OBSERVATIONS ACROSS
MUCH OF THE UPPER MISSISSIPPI VALLEY
NATIONAL WEATHER SERVICE LA CROSSE WI
900 PM CDT MON JUL 21 2014


...SOUTHEAST MINNESOTA...


CITY           SKY/WX    TMP DP  RH WIND       PRES   REMARKS
ROCHESTER      MOCLDY    80  72  76 S10       29.92F
ROCHESTER/MAYO MOCLDY    81  70  68 SE10G17   29.91S
WINONA         MOCLDY    81  70  69 SE9       29.91F
AUSTIN         PTCLDY    81  73  78 S7        29.90S
ALBERT LEA     PTCLDY    82  75  78 S8        29.89R
DODGE CENTER   PTCLDY    81  73  78 S10       29.90F
PRESTON        MOCLDY    79  74  87 S9        29.94S
OWATONNA       PTCLDY    82  75  78 S9G16     29.87F
FARIBAULT      MOCLDY    86  72  62 SE7       29.86F HX  92
$$

...ELSEWHERE IN MINNESOTA...


CITY           SKY/WX    TMP DP  RH WIND       PRES   REMARKS
MINNEAPOLIS    MOCLDY    85  74  69 SE13      29.83F HX  92
INTNL FALLS    MOCLDY    80  73  79 CALM      29.76F
DULUTH         MOCLDY    81  73  76 S10       29.83F
RED WING       MOCLDY    84  72  65 S7        29.86F
REDWOOD FALLS  PTCLDY    82  75  79 SE12      29.77F
MANKATO        MOCLDY    82  73  74 S12       29.83F
WORTHINGTON    PTCLDY    81  77  89 S8        29.84R
FAIRMONT       CLOUDY    82  73  74 SE13      29.84S
$$

...SOUTHWEST WISCONSIN...


CITY           SKY/WX    TMP DP  RH WIND       PRES   REMARKS
LA CROSSE      MOCLDY    83  68  60 S8        29.93R
PRAIRIE DU CHI NOT AVBL
BOSCOBEL       CLEAR     81  68  64 VRB5      29.97R
LONE ROCK      NOT AVBL
PLATTEVILLE    CLEAR     77  70  78 SE8       30.00F
FORT MC COY    CLEAR     79  66  63 S5        29.96R
VIROQUA        FAIR      77  68  72 S7        29.98R
WIS DELLS      CLEAR     78  66  65 S7        29.99S
$$

...ELSEWHERE IN WISCONSIN...


CITY           SKY/WX    TMP DP  RH WIND       PRES   REMARKS
MILWAUKEE      PTCLDY    76  63  64 S9        30.04S
MADISON        CLEAR     80  68  66 S12       30.01R
GREEN BAY      CLEAR     77  67  71 S9        30.00S
EAU CLAIRE     NOT AVBL
BLACK RVR FLS  FAIR      80  68  67 CALM      29.94S
MEDFORD        CLEAR     75  70  84 S7        29.97S
WAUSAU         CLEAR     79  69  71 S8        29.96F
WIS RAPIDS     CLEAR     80  66  62 S6        29.99S
MARSHFIELD     CLEAR     74  69  85 S6        29.97S
RICE LAKE      CLOUDY    82  71  70 SE12      29.91F
$$

...NORTHEAST IOWA...


CITY           SKY/WX    TMP DP  RH WIND       PRES   REMARKS
WATERLOO       MOCLDY    82  72  71 S17G23    29.91F
DUBUQUE        CLEAR     76  69  79 S12       29.99F
DECORAH        MOCLDY    79  72  78 S9        29.94F
MASON CITY     MOCLDY    82  77  84 SE10      29.91S HX  90
CHARLES CITY   CLOUDY    82  73  74 SE12G17   29.92F
OELWEIN        CLEAR     79  75  89 S10       29.96S
$$

...ELSEWHERE IN IOWA...


CITY           SKY/WX    TMP DP  RH WIND       PRES   REMARKS
DES MOINES     PTCLDY    86  76  71 S9        29.90S HX  96
IOWA CITY      PTCLDY    79  71  76 SE9       29.98R
FORT DODGE     PTCLDY    84  75  74 S7        29.88R HX  92
MARSHALLTOWN   MOCLDY    83  75  77 SE14      29.91F HX  90
CEDAR RAPIDS   PTCLDY    79  70  74 S9        29.96R
$$

...NORTHERN ILLINOIS...


CITY           SKY/WX    TMP DP  RH WIND       PRES   REMARKS
CHICAGO-OHARE  CLEAR     78  63  59 S8        30.06S
DUPAGE         CLEAR     74  65  73 S6        30.06S
CHICAGO-MIDWAY CLEAR     82  65  56 S8        30.06S
MOLINE         CLEAR     78  69  73 SE6       30.00S
ROCKFORD       CLEAR     77  68  73 S12       30.04F
STERLING       CLEAR     75  70  83 S5        30.03S
PEORIA         CLEAR     79  68  69 S6        30.05R
$$

NOTE: "FAIR" INDICATES FEW OR NO CLOUDS BELOW 12,000 FEET WITH NO
SIGNIFICANT WEATHER AND/OR OBSTRUCTIONS TO VISIBILITY. WIND
SPEEDS ARE IN MILES-PER-HOUR.



USA.gov is the U.S. government's official web portal to all federal, state and local government web resources and services.